Weather History for Anapa, Russia

Change the Weather History Date:

Saturday, April 28, 2012

  Actual Average Record
Temperature  
Mean Temperature 70 °F -  
Max Temperature 84 °F - - ()
Min Temperature 57 °F - - ()
Cooling Degree Days 6    
Growing Degree Days 20 (Base 50)    
Moisture  
Dew Point 45 °F    
Average Humidity 40    
Maximum Humidity 88    
Minimum Humidity 11    
Precipitation  
Precipitation 0.00 in - - ()
Sea Level Pressure  
Sea Level Pressure 30.12 in    
Wind  
Wind Speed 11 mph ()    
Max Wind Speed 20 mph    
Max Gust Speed 25 mph    
Visibility 5.8 miles    
Events      
T = Trace of Precipitation, MM = Missing Value Source: Averaged Metar Reports

Daily Weather History Graph

Daily Weather History Graph

Search for Another Location

Airport:

Trip Planner

Search our weather history database for the weather conditions in past years. The results will help you decide how hot, cold, wet, or windy it might be!

Date:

Astronomy

Apr. 28, 2012 Rise Set
Actual Time 6:24 AM MSK 8:32 PM MSK
Civil Twilight 5:52 AM MSK 9:04 PM MSK
Nautical Twilight 5:12 AM MSK 9:44 PM MSK
Astronomical Twilight 4:29 AM MSK 10:28 PM MSK
Moon 11:39 AM MSK (4/28) 1:47 AM MSK (4/28)
Length of Visible Light 15h 12m
Length of Day
14h 08m
Waxing Crescent, 39% of the Moon is Illuminated
Apr 28
Waxing Crescent
Apr 29
First Quarter
May 6
Full
May 13
Last Quarter
May 21
New

Hourly Weather History & Observations

Time (MSK) Temp. Dew Point Humidity Pressure Visibility Wind Dir Wind Speed Gust Speed Precip Events Conditions
12:00 AM 59.0 °F 46.4 °F 63% 30.09 in - East 11.2 mph - N/A   Clear
1:00 AM 61 °F 46 °F 48% 30.11 in 6 mi ENE 4.5 mph - -  
1:00 AM 60.8 °F 44.6 °F 55% 30.09 in - East 11.2 mph - N/A   Clear
2:00 AM 62.6 °F 44.6 °F 52% 30.09 in - ENE 11.2 mph - N/A   Clear
3:00 AM 62.6 °F 44.6 °F 52% 30.09 in - ENE 11.2 mph - N/A   Clear
4:00 AM 62 °F 44 °F 41% 30.10 in 6 mi ENE 6.7 mph - -  
4:00 AM 60.8 °F 44.6 °F 55% 30.09 in - ENE 11.2 mph - N/A   Clear
5:00 AM 60.8 °F 44.6 °F 55% 30.09 in - ENE 13.4 mph - N/A   Clear
6:00 AM 60.8 °F 44.6 °F 55% 30.09 in - ENE 13.4 mph - N/A   Clear
7:00 AM 61 °F 45 °F 45% 30.12 in 6 mi ENE 6.7 mph - -  
7:00 AM 60.8 °F 46.4 °F 59% 30.12 in - ENE 13.4 mph - N/A   Clear
8:00 AM 64.4 °F 48.2 °F 56% 30.12 in - East 13.4 mph - N/A   Clear
8:30 AM 66.2 °F 48.2 °F 52% 30.12 in - East 11.2 mph - N/A   Clear
9:00 AM 69.8 °F 48.2 °F 46% 30.15 in - East 13.4 mph - N/A   Clear
9:30 AM 71.6 °F 46.4 °F 41% 30.15 in - East 15.7 mph - N/A   Clear
10:00 AM 57 °F 53 °F 82% 30.16 in 6 mi South 8.9 mph - -  
10:00 AM 75.2 °F 46.4 °F 36% 30.15 in - East 15.7 mph - N/A   Clear
10:30 AM 77.0 °F 44.6 °F 32% 30.15 in - East 15.7 mph - N/A   Clear
11:00 AM 78.8 °F 46.4 °F 32% 30.15 in - East 13.4 mph - N/A   Clear
11:30 AM 78.8 °F 48.2 °F 34% 30.15 in - ENE 15.7 mph - N/A   Clear
12:00 PM 78.8 °F 48.2 °F 34% 30.15 in - East 17.9 mph - N/A   Clear
12:30 PM 80.6 °F 48.2 °F 32% 30.15 in - ENE 15.7 mph - N/A   Clear
1:00 PM 57 °F 54 °F 88% 30.15 in 2 mi West 4.5 mph - -   Mist
1:00 PM 82.4 °F 44.6 °F 26% 30.15 in - ENE 15.7 mph - N/A   Clear
1:30 PM 82.4 °F 42.8 °F 25% 30.15 in 6.2 mi ENE 17.9 mph - N/A   Partly Cloudy
2:00 PM 82.4 °F 41.0 °F 23% 30.12 in 6.2 mi East 15.7 mph - N/A   Partly Cloudy
2:30 PM 84.2 °F 41.0 °F 22% 30.12 in 6.2 mi East 15.7 mph - N/A   Partly Cloudy
3:00 PM 84.2 °F 42.8 °F 23% 30.12 in 6.2 mi ENE 13.4 mph 24.6 mph N/A   Partly Cloudy
3:30 PM 84.2 °F 41.0 °F 22% 30.12 in 6.2 mi ENE 15.7 mph - N/A   Partly Cloudy
4:00 PM 84 °F 39 °F 11% 30.11 in 6 mi ENE 11.2 mph - -   Scattered Clouds
4:00 PM 84.2 °F 42.8 °F 23% 30.12 in 6.2 mi East 13.4 mph - N/A   Partly Cloudy
4:30 PM 84.2 °F 41.0 °F 22% 30.12 in 6.2 mi East 13.4 mph - N/A   Partly Cloudy
5:00 PM 82.4 °F 42.8 °F 25% 30.09 in 6.2 mi ENE 13.4 mph - N/A   Partly Cloudy
5:30 PM 82.4 °F 44.6 °F 26% 30.09 in - North 20.1 mph - N/A   Clear
6:00 PM 80.6 °F 44.6 °F 28% 30.09 in - NNE 20.1 mph - N/A   Clear
7:00 PM 79 °F 42 °F 17% 30.10 in 6 mi NNE 8.9 mph - -  
7:00 PM 78.8 °F 42.8 °F 28% 30.09 in - NNE 17.9 mph - N/A   Clear
8:00 PM 73.4 °F 44.6 °F 36% 30.09 in - NNE 13.4 mph - N/A   Clear
9:00 PM 68.0 °F 46.4 °F 46% 30.12 in - NNE 11.2 mph - N/A   Clear
10:00 PM 70 °F 45 °F 29% 30.12 in 6 mi ENE 4.5 mph - -  
10:00 PM 68.0 °F 44.6 °F 43% 30.12 in - NE 11.2 mph - N/A   Clear
11:00 PM 64.4 °F 44.6 °F 49% 30.12 in - ENE 8.9 mph - N/A   Clear